STARLINK-32142, 60291

Orbit data source: Space-Track

STARLINK-32142, 60291 is a payload satellite in LEO that was launched on Sun, 28 Jul 2024 UTC via an FALCON 9 launch vehicle from the Air Force Eastern Test Range (AFETR). Payload-class satellites include a variety of spacecraft equipped with specific instruments for various scientific and technological missions. These include communications satellites like Starlink; space stations such as the ISS; scientific satellites like the Hubble; Earth observation satellites from companies like Planet Labs, Umbra, and HawkEye 360; GPS; miniature CubeSats for education and research; and military/defense satellites.

Loading next visibility...
Identifier
60291, 2024-132P
Orbit
LEO
Last TLE update
1 day ago
Origin
Manufacturer
SpaceX/Seattle
Mission
Operational spacecraft
Bus & Motor
STARLINK V2M, Unknown motor
Mass
730 kg wet, ~700 kg dry
Launch date (UTC)
2024-07-28 (10 months ago)
Launch vehicle
FALCON 9
Launch site
Air Force Eastern Test Range (AFETR)
Object type
Payload
Rocket body
Debris
Shape & HBR
Unknown
Radar Cross Section
Large (>1 m²)

Expand to show TLE details & history

TLE from 1 day ago
0 STARLINK-32142
1 60291U 24132P   25139.24691383  .00000407  00000-0  25868-4 0  9990
2 60291  53.1623 339.8237 0001243  97.1343 262.9799 15.30194003 46484
Epoch: 2025-05-19T05:55Z
TLE epoch observation values (Epoch: 2025-05-19T05:55:33.354Z)
Latitude
-0.00005°
Longitude
13.77241°
Altitude
476.237 km
Speed
7.629 km/s
True Right ascension
22h 39m 17s
True Declination
0° 00' 00"
Sunlit
Object was in daylight at epoch
Visualization orbit readout
Latitude
52.7458°
Longitude
85.42003°
Altitude
480.866 km
Speed
7.632 km/s
Apparent Right ascension
09h 49m 43s
Apparent Declination
31° 56' 25"
Sunlit
Object is in daylight
Visualization observer readout
Local Sidereal Time
01:40:16
Azimuth
45.793° ENE
Elevation
-0.511°
Doppler factor
1
Orbital elements
Apogee altitude
476.341 km
Perigee altitude
474.637 km
Semi-major axis
6,853.626 km
Eccentricity
0.00012
Inclination
53.1623°
RAAN
339.8237°
Arg. of periapsis
97.1343°
True anomaly
Unknown
Mean anomaly
262.9799°
Eccentric anomaly
Unknown
Mean motion
3.82527 °/min
Orbital period
94.11 mins
BSTAR
0.000025868
Loading maneuver chart data...
Loading SW <> Apogee altitude chart data...
Loading historical data...
Loading historical data...
Loading historical data...
Loading historical data...
Loading historical data...
Loading historical data...
Loading historical data...

STARLINK-32142 Visibility forecast

Observer location: undefined°, undefined°

Span
Click to sort rows by Start time (UTC) header in descending order
Start Az.
Max El. time (UTC)
Max El. Az.
Max El.
End time (UTC)
End Az.
5 mins2025-05-20 21:35:22.523Z339.858° N2025-05-20 21:37:22.523Z27.635° NE25.776°2025-05-20 21:40:22.523Z89.272° E
5 mins2025-05-20 23:13:22.523Z283.588° WNW2025-05-20 23:15:22.523Z227.466° WSW31.586°2025-05-20 23:18:22.523Z160.417° S
4 mins2025-05-21 14:31:22.523Z171.629° S2025-05-21 14:33:22.523Z126.666° SE21.899°2025-05-21 14:35:22.523Z84.955° E
5 mins2025-05-21 16:09:22.523Z272.692° WNW2025-05-21 16:11:22.523Z344.246° N32.282°2025-05-21 16:14:22.523Z37.703° NE
|